Location: Bouchavesnes-Bergen
(49.9859°N, 2.9203°E)
Time: 00:11:05
(UTC+00:00)

H-2A R/B - Pass Details

Date: 09 March 2021
Orbit: 501 x 538 km, 97.3° (Epoch: 12 March)

Event Time Altitude Azimuth Distance (km) Brightness Sun altitude
Rises 05:26:56 0° 12° (NNE) 2,707 6.6 -8.5°
Reaches altitude 10° 05:29:04 10° 12° (NNE) 1,810 5.7 -8.2°
Maximum altitude 05:33:00 87° 282° (WNW) 546 2.8 -7.5°
Drops below altitude 10° 05:36:52 10° 196° (SSW) 1,787 5.3 -6.9°
Sets 05:38:57 0° 196° (SSW) 2,669 6.1 -6.6°
